www.pogodaiklimat.ru
ПОГОДА в Оконто
Время
и дата
12:35 24.10
12:55 24.10
13:15 24.10
13:35 24.10
13:55 24.10
14:15 24.10
14:35 24.10
14:55 24.10
15:15 24.10
15:35 24.10
15:55 24.10
16:15 24.10
16:35 24.10
16:55 24.10
17:15 24.10
17:35 24.10
17:55 24.10
18:15 24.10
18:35 24.10
18:55 24.10
19:15 24.10
19:35 24.10
19:55 24.10
20:15 24.10
20:35 24.10
20:55 24.10
21:15 24.10
21:35 24.10
21:55 24.10
22:15 24.10
22:35 24.10
22:55 24.10
23:15 24.10
23:35 24.10
23:55 24.10
00:15 25.10
00:35 25.10
00:55 25.10
01:15 25.10
01:35 25.10
01:55 25.10
02:15 25.10
02:35 25.10
02:55 25.10
03:15 25.10
03:35 25.10
03:55 25.10
04:15 25.10
Ветер
(напр.,м/с)
Видим. Явления Облачность Т
(С)
Тd
(С)
f
(%)
Тe
(С)
Тes
(С)
Комфортность P
(гПа)
Po
(гПа)
Тmin
(С)
Tmax
(С)
R
(мм)
R24
(мм)
S
(см)
З 2 16 км 10/10 1200 м +3.2 -4.3 58 -1 -1 1002.1
З 2 16 км 10/10 1410 м +3.0 -4.6 57 -2 -2 1002.1
З 2 16 км 10/10 1290 м +2.8 -4.5 59 -1 -1 1002.1
СЗ 1
{2}
16 км 10/10 1230 м +2.8 -4.2 60 -1 -1 1001.4
СЗ 1 16 км 10/10 1230 м +2.7 -4.4 59 -1 -1 1001.8
З 2 16 км 10/10 1110 м +2.5 -4.0 62 -2 -2 1001.4
СЗ 1 16 км 8/8 1050 м +2.5 -4.5 60 -1 0 1001.4
З 1 16 км 5/5 1080 м +2.4 -4.9 59 -1 +1 1001.4
З 1 16 км 8/8 1290 м +2.2 -5.3 58 -1 -1 1001.4
СЗ 1 16 км 10/10 1290 м +2.3 -5.5 56 -1 -1 1001.8
З 1 16 км 8/8 1290 м +2.0 -5.9 56 -1 0 1001.8
З 1 16 км 5/5 1230 м +1.7 -6.3 55 -1 -1 1002.1
СЗ 2 16 км 5/5 1290 м +1.5 -6.7 54 -3 -3 1002.1
СЗ 1 16 км ясно +1.1 -6.8 56 -2 -1 1002.4
СЗ 1 16 км ясно +1.0 -7.0 55 -2 -2 1002.4
С 1 16 км 5/0 3600 м
[Ac]
+0.8 -6.7 57 -3 -3 1002.8
С 1 16 км 5/0 3600 м
[Ac]
+0.6 -6.7 58 -3 -3 1003.1 +0.6 +4.0
С 1 16 км 5/0 3600 м
[Ac]
+0.5 -7.0 57 -4 -4 1003.1
С 1 16 км 8/0 3600 м
[Ac]
+0.5 -6.8 58 -4 -4 1003.1
С 1 16 км 8/0 3600 м
[Ac]
+0.2 -6.6 60 -4 -4 1003.1
СЗ 1 16 км 5/0 3600 м
[Ac]
+0.1 -6.6 61 -3 -3 1003.4
С 1 16 км 8/0 3300 м
[Ac]
0.0 -6.7 61 -3 -3 1003.4
штиль 0 16 км 5/0 3300 м
[Ac]
0.0 -6.5 62 -1 -1 1003.4
штиль 0 16 км ясно -0.3 -6.2 64 -1 -1 1003.4
штиль 0 16 км ясно -0.5 -6.4 64 -1 -1 1003.8
штиль 0 16 км ясно -0.7 -6.5 65 -1 -1 1003.4
СЗ 1 16 км ясно -1.0 -6.4 67 -4 -4 1003.8
штиль 0 16 км ясно -1.2 -6.3 68 -2 -2 1004.1
С 1 16 км ясно -1.1 -6.2 68 -5 -5 1003.8
СЗ 1 16 км ясно -1.1 -6.2 68 -5 -5 1004.1
СЗ 1 16 км ясно -1.1 -6.5 67 -5 -5 1003.8
СЗ 1 16 км ясно -1.1 -6.5 67 -5 -5 1003.4
СЗ 1 16 км ясно -1.1 -6.2 68 -5 -5 1003.4
СЗ 1 16 км ясно -1.1 -6.1 69 -5 -5 1003.4
СЗ 1 16 км ясно -1.1 -6.1 69 -5 -5 1003.8 -1.4 +0.6
СЗ 1 16 км ясно -1.2 -6.0 70 -5 -5 1003.4
СЗ 1 16 км ясно -1.2 -5.6 72 -6 -6 1003.8
штиль 0 16 км 5/0 3600 м
[Ac]
-1.1 -5.5 72 -2 -2 1003.8
СЗ 1 16 км 10/0 3600 м
[Ac]
-1.1 -5.4 73 -5 -5 1003.8
СЗ 1 16 км 10/0 3300 м
[Ac]
-1.1 -5.5 72 -5 -5 1003.8
С 1 16 км 5/0 3300 м
[Ac]
-1.0 -5.4 72 -5 -5 1003.8
СЗ 1 16 км 5/0 3300 м
[Ac]
-1.0 -5.2 73 -5 -5 1003.4
штиль 0 16 км 10/0 3300 м
[Ac]
-1.1 -5.1 74 -2 -2 1003.4
штиль 0 16 км 10/0 3000 м
[Ac]
-1.1 -5.0 75 -2 -2 1003.8
штиль 0 16 км 5/0 2700 м
[Ac]
-1.3 -5.0 76 -2 -2 1003.4
штиль 0 16 км ясно -1.5 -4.8 78 -2 -2 1003.4
штиль 0 16 км 5/0 3600 м
[Ac]
-1.5 -4.8 78 -2 -2 1003.8
СЗ 1 16 км 10/0 3000 м
[Ac]
-1.5 -4.8 78 -5 -5 1004.1
Местоположение метеостанции J. Douglas Bake Memorial Airport: широта 44.8742 долгота -87.9096 высота над уровнем моря 184 м.
В архиве по умолчанию представлена погода в Оконто за последние 1-2 суток. Обновление информации о фактической погоде в базе происходит ежечасно! Архивные данные за месяц целиком и за предыдущие месяцы Вы можете получить, выбрав интересующий диапазон дат из раскрывающегося списка и нажав кнопку "Ввод!".
Внимание! Архив погоды МЕТАР в базе сайта по станциям, не включенным в климатический монитор, хранится не более 60 дней. Нет смысла пытаться выбрать более раннюю дату.
*Определитесь, кто Вы:
Внимание! Время в таблицах - местное (без учета летнего времени). Для получения всемирного времени необходимо вычесть поправку, которая равна -6 ч.
Смотрите также архив погоды в соседних городах и на ближайших метеорологических станциях:
Партнеры нашего сайта:      
Пояснения к столбцам:
  • Ветер - указаны скорость ветра в м/с - средняя за 10 мин, порывы в срок и между сроками (в фигурных скобках) и направление, откуда дует ветер: С - северный,
  • СВ - северо-восточный, В - восточный, ЮВ - юго-восточный, Ю - южный, ЮЗ - юго-западный, З - западный, СЗ - северо-западный.
  • Видимость - горизонтальная дальность видимости в метрах или километрах. При видимости от 1 до 10 км при отсутствии осадков обычно наблюдается дымка, при ухудшении видимости до 1 км и менее - туман. В сухую погоду видимость может ухудшаться дымом, пылью или мглою.
  • Явления - указаны атмосферные явления, наблюдавшиеся в срок или в последний час перед сроком; фигурными скобками обозначены явления, наблюдавшиеся между сроками (за 1-3 часа до срока); квадратными скобками обозначены град или гололедные отложения с указанием их диаметра в мм.
  • Облачность - указаны через наклонную черту общая и нижняя облачность в баллах и высота нижней границы облаков в метрах; квадратными скобками обозначены формы облаков: Ci - перистые, Cs - перисто-слоистые, Cc - перисто-кучевые, Ac - высококучевые, As - высокослоистые, Sc - слоисто-кучевые, Ns - слоисто-дождевые, Cu - кучевые, Cb - кучево-дождевые. Подробнее классификацию облаков см. в Атласе облаков (PDF).
  • T - Температура воздуха - температура, измеренная на высоте 2 м над землей.
  • Td - Температура точки росы - температура, при понижении до которой содержащийся в воздухе водяной пар достигнет насыщения.
  • f - Относительная влажность воздуха - влажноcть воздуха, измеренная на высоте 2 м над землей.
  • Te - Эффективная температура - температура, которую ощущает одетый по сезону человек в тени. Характеристика душности погоды. При расчете учитывается влияние влажности воздуха и скорости ветра на теплоощущения человека.
  • Tes - Эффективная температура на солнце - температура, которую ощущает человек, с поправкой на солнечный нагрев. Характеристика знойности погоды. Зависит от высоты солнца над горизонтом, облачности и скорости ветра. Ночью, в пасмурную погоду, а также при ветре 12 м/с и более поправка равна нулю.
  • P - Атмосферное давление - приведенное к уровню моря атмосферное давление.
  • Po - Атмосферное давление - измеренное на уровне метеостанции атмосферное давление.
  • Tmin - Минимальная температура - минимум температуры воздуха на высоте 2 м над землей.
  • Tmax - Максимальная температура - максимум температуры воздуха на высоте 2 м над землей.
  • R - Количество осадков - Количество выпавших осадков за период времени, мм. При наведении курсора мыши на число - период времени, за который выпало указанное количество осадков.
  • R24 - Количество осадков - Количество выпавших осадков за 24 часа, мм.
  • S - Снежный покров - Высота снежного покрова, см. При наведении курсора мыши на число - состояние снежного покрова и степень покрытия местности в баллах.